N5CSU Weather Reports


time (UTC)temp
C
wind
direction
speed
KPH
gust
KPH
rain 1hr
cm
rain 24hr
cm
rain mn
cm
humidity
%
barometer
mb
20260902155931 32 194 0.0 0.0 0.00 0.00 0.00 63 1016.5
20260902155426 31 24 0.0 0.0 0.00 0.00 0.00 62 1016.6
20260902154920 31 196 0.0 0.0 0.00 0.00 0.00 64 1016.6
20260902154416 31 184 0.0 0.0 0.00 0.00 0.00 65 1016.6
20260902153915 31 198 0.0 0.0 0.00 0.00 0.00 63 1016.7
20260902153413 31 203 0.0 0.0 0.00 0.00 0.00 64 1016.6
20260902152910 31 166 0.0 0.0 0.00 0.00 0.00 65 1016.6
20260902152406 30 199 0.0 0.0 0.00 0.00 0.00 68 1016.6
20260902151901 30 98 0.0 0.0 0.00 0.00 0.00 67 1016.6
20260902151356 30 121 0.0 0.0 0.00 0.00 0.00 67 1016.5
20260902150850 30 198 0.0 0.0 0.00 0.00 0.00 68 1016.7
20260902150347 30 189 0.0 0.0 0.00 0.00 0.00 68 1016.7
20260902145846 30 188 0.0 0.0 0.00 0.00 0.00 69 1016.6
20260902145341 29 139 0.0 0.0 0.00 0.00 0.00 70 1016.4
20260902144837 29 203 0.0 0.0 0.00 0.00 0.00 71 1016.5
20260902144333 29 192 0.0 0.0 0.00 0.00 0.00 73 1016.5
20260902143828 28 204 0.0 0.0 0.00 0.00 0.00 73 1016.5
20260902143328 28 194 0.0 0.0 0.00 0.00 0.00 72 1016.5
20260902142824 28 195 0.0 0.0 0.00 0.00 0.00 73 1016.4
20260902142320 28 185 0.0 0.0 0.00 0.00 0.00 74 1016.3
20260902141814 28 198 0.0 0.0 0.00 0.00 0.00 75 1016.4
20260902141310 28 188 0.0 0.0 0.00 0.00 0.00 76 1016.3
20260902140809 28 188 0.0 0.0 0.00 0.00 0.00 76 1016.3
20260902140305 27 192 0.0 0.0 0.00 0.00 0.00 77 1016.7
20260902135804 27 179 0.0 0.0 0.00 0.00 0.00 77 1016.5
20260902135300 27 182 0.0 0.0 0.00 0.00 0.00 77 1016.4
20260902134759 27 197 0.0 0.0 0.00 0.00 0.00 79 1016.4
20260902134255 27 197 0.0 0.0 0.00 0.00 0.00 78 1016.0
20260902133750 27 180 0.0 0.0 0.00 0.00 0.00 78 1016.0
20260902133249 27 196 0.0 0.0 0.00 0.00 0.00 79 1016.3
20260902132744 26 186 0.0 0.0 0.00 0.00 0.00 79 1016.1
20260902132240 26 189 0.0 0.0 0.00 0.00 0.00 80 1016.4
20260902131736 26 189 0.0 0.0 0.00 0.00 0.00 80 1016.4
20260902131232 26 197 0.0 0.0 0.00 0.00 0.00 80 1016.3
20260902130726 26 202 0.0 0.0 0.00 0.00 0.00 79 1016.3
20260902130222 26 201 0.0 0.0 0.00 0.00 0.00 81 1016.3
20260902125717 25 208 0.0 0.0 0.00 0.00 0.00 80 1016.1
20260902125213 25 194 0.0 0.0 0.00 0.00 0.00 83 1016.1
20260902124709 25 203 0.0 0.0 0.00 0.00 0.00 82 1015.9
20260902124204 25 198 0.0 0.0 0.00 0.00 0.00 83 1015.8
20260902123659 25 205 0.0 0.0 0.00 0.00 0.00 84 1015.8
20260902123155 24 191 0.0 0.0 0.00 0.00 0.00 85 1015.8
20260902122648 24 203 0.0 0.0 0.00 0.00 0.00 86 1015.7
20260902122144 24 208 0.0 0.0 0.00 0.00 0.00 86 1015.8
20260902121638 24 208 0.0 0.0 0.00 0.00 0.00 86 1015.7
20260902121133 24 208 0.0 0.0 0.00 0.00 0.00 86 1015.8
20260902120629 24 208 0.0 0.0 0.00 0.00 0.00 86 1015.8
20260902120126 24 208 0.0 0.0 0.00 0.00 0.00 85 1015.6
20260902115620 24 208 0.0 0.0 0.00 0.00 0.00 86 1015.8
20260902115116 24 208 0.0 0.0 0.00 0.00 0.00 86 1015.7
20260902114612 24 208 0.0 0.0 0.00 0.00 0.00 86 1015.7
20260902114112 24 208 0.0 0.0 0.00 0.00 0.00 86 1015.9
20260902113608 24 208 0.0 0.0 0.00 0.00 0.00 86 1015.9
20260902113108 24 208 0.0 0.0 0.00 0.00 0.00 86 1015.9
20260902112603 24 209 0.0 0.0 0.00 0.00 0.00 86 1016.0
20260902112100 24 209 0.0 0.0 0.00 0.00 0.00 86 1015.7
20260902111555 24 209 0.0 0.0 0.00 0.00 0.00 86 1015.7
20260902111051 24 209 0.0 0.0 0.00 0.00 0.00 86 1015.7
20260902110547 24 210 0.0 0.0 0.00 0.00 0.00 86 1015.9
20260902110043 24 210 0.0 0.0 0.00 0.00 0.00 86 1015.7
20260902105538 25 210 0.0 0.0 0.00 0.00 0.00 86 1015.9
20260902105037 25 210 0.0 0.0 0.00 0.00 0.00 86 1015.8
20260902104533 25 210 0.0 0.0 0.00 0.00 0.00 85 1015.5
20260902104032 25 210 0.0 0.0 0.00 0.00 0.00 85 1015.6
20260902103528 25 210 0.0 0.0 0.00 0.00 0.00 85 1015.8
20260902103023 25 210 0.0 0.0 0.00 0.00 0.00 84 1015.7
20260902102520 25 210 0.0 0.0 0.00 0.00 0.00 84 1015.6
20260902102017 25 210 0.0 0.0 0.00 0.00 0.00 84 1015.6
20260902101512 25 210 0.0 0.0 0.00 0.00 0.00 84 1015.7
20260902101011 25 210 0.0 0.0 0.00 0.00 0.00 83 1015.8
20260902100506 25 193 0.0 0.0 0.00 0.00 0.00 82 1015.7
20260902100005 25 188 0.0 0.0 0.00 0.00 0.00 84 1015.7
20260902095500 25 187 0.0 0.0 0.00 0.00 0.00 84 1015.5
20260902094959 25 191 0.0 0.0 0.00 0.00 0.00 84 1015.7
20260902094455 25 197 0.0 0.0 0.00 0.00 0.00 83 1015.6
20260902093955 26 198 0.0 0.0 0.00 0.00 0.00 83 1015.7
20260902093456 26 199 0.0 0.0 0.00 0.00 0.00 80 1015.6
20260902092955 26 201 0.0 0.0 0.00 0.00 0.00 75 1015.5
20260902092451 26 201 0.0 0.0 0.00 0.00 0.00 75 1015.6
20260902091950 26 201 0.0 0.0 0.00 0.00 0.00 74 1015.4
20260902091445 26 201 0.0 0.0 0.00 0.00 0.00 74 1015.4
20260902090942 26 200 0.0 0.0 0.00 0.00 0.00 73 1015.5
20260902090437 27 200 0.0 0.0 0.00 0.00 0.00 73 1015.4
20260902085936 27 200 0.0 0.0 0.00 0.00 0.00 72 1015.5
20260902085431 27 200 0.0 0.0 0.00 0.00 0.00 72 1015.2
20260902084926 27 199 0.0 0.0 0.00 0.00 0.00 72 1015.3
20260902084423 27 199 0.0 0.0 0.00 0.00 0.00 72 1015.4
20260902083919 27 199 0.0 0.0 0.00 0.00 0.00 71 1015.2
20260902083418 27 199 0.0 0.0 0.00 0.00 0.00 71 1015.3
20260902082913 27 201 0.0 0.0 0.00 0.00 0.00 70 1015.3
20260902082403 27 201 0.0 0.0 0.00 0.00 0.00 70 1015.5
20260902081859 27 202 0.0 0.0 0.00 0.00 0.00 70 1015.4
20260902081356 27 201 0.0 0.0 0.00 0.00 0.00 69 1015.4
20260902080856 28 202 0.0 0.0 0.00 0.00 0.00 69 1015.2
20260902080352 28 197 0.0 0.0 0.00 0.00 0.00 69 1015.3
20260902075851 28 201 0.0 0.0 0.00 0.00 0.00 68 1015.4
20260902075348 28 203 0.0 0.0 0.00 0.00 0.00 67 1015.5
20260902074843 28 198 0.0 0.0 0.00 0.00 0.00 67 1015.4
20260902074338 28 203 0.0 0.0 0.00 0.00 0.00 67 1015.4
20260902073833 28 194 0.0 0.0 0.00 0.00 0.00 66 1015.4
20260902073330 28 177 0.0 0.0 0.00 0.00 0.00 66 1015.4
20260902072825 28 205 0.0 0.0 0.00 0.00 0.00 66 1015.2
20260902072320 28 205 0.0 0.0 0.00 0.00 0.00 66 1015.5
20260902071817 28 190 0.0 0.0 0.00 0.00 0.00 66 1015.4
20260902071312 28 196 0.0 0.0 0.00 0.00 0.00 66 1015.5
20260902070808 28 205 0.0 0.0 0.00 0.00 0.00 66 1015.4
20260902070307 29 194 0.0 0.0 0.00 0.00 0.00 65 1015.6
20260902065807 29 193 0.0 0.0 0.00 0.00 0.00 65 1015.2
20260902065302 29 198 0.0 0.0 0.00 0.00 0.00 65 1015.5
20260902064757 29 190 0.0 0.0 0.00 0.00 0.00 65 1015.4
20260902064253 29 215 0.0 0.0 0.00 0.00 0.00 66 1015.5
20260902063749 29 179 0.0 0.0 0.00 0.00 0.00 65 1015.5
20260902063243 29 191 0.0 0.0 0.00 0.00 0.00 65 1015.6
20260902062738 29 188 0.0 0.0 0.00 0.00 0.00 64 1015.4
20260902062233 29 194 0.0 0.0 0.00 0.00 0.00 64 1015.5
20260902061731 30 201 0.0 0.0 0.00 0.00 0.00 64 1015.6
20260902061227 30 200 0.0 0.0 0.00 0.00 0.00 64 1015.7
20260902060724 30 189 0.0 0.0 0.00 0.00 0.00 65 1015.5
20260902060219 30 188 0.0 0.0 0.00 0.00 0.00 65 1015.5
20260902055715 30 206 0.0 0.0 0.00 0.00 0.00 65 1015.4
20260902055211 30 209 0.0 0.0 0.00 0.00 0.00 65 1015.3
20260902054706 30 204 0.0 0.0 0.00 0.00 0.00 66 1015.4
20260902054201 30 204 0.0 0.0 0.00 0.00 0.00 66 1015.4
20260902053657 30 207 0.0 0.0 0.00 0.00 0.00 66 1015.5
20260902053156 30 202 0.0 0.0 0.00 0.00 0.00 66 1015.3
20260902052655 30 206 0.0 0.0 0.00 0.00 0.00 66 1015.4
20260902052151 30 197 0.0 0.0 0.00 0.00 0.00 66 1015.3
20260902051650 30 197 0.0 0.0 0.00 0.00 0.00 65 1015.4
20260902051145 30 198 0.0 0.0 0.00 0.00 0.00 65 1015.3
20260902050639 30 197 0.0 0.0 0.00 0.00 0.00 64 1015.3
20260902050135 30 194 0.0 0.0 0.00 0.00 0.00 64 1015.4
20260902045630 30 197 0.0 0.0 0.00 0.00 0.00 64 1015.4
20260902045126 30 24 0.0 0.0 0.00 0.00 0.00 64 1015.5
20260902044625 30 198 0.0 0.0 0.00 0.00 0.00 63 1015.3
20260902044122 30 182 0.0 0.0 0.00 0.00 0.00 63 1015.2
20260902043617 30 256 0.0 0.0 0.00 0.00 0.00 62 1015.3
20260902043112 30 159 0.0 1.6 0.00 0.00 0.00 62 1015.4
20260902042611 31 200 0.0 0.0 0.00 0.00 0.00 62 1015.3
20260902042107 31 204 0.0 0.0 0.00 0.00 0.00 62 1015.2
20260902041606 31 185 0.0 0.0 0.00 0.00 0.00 61 1015.3
20260902041101 31 170 0.0 0.0 0.00 0.00 0.00 60 1015.4
20260902040556 31 218 0.0 0.0 0.00 0.00 0.00 60 1015.3
20260902040051 31 176 0.0 0.0 0.00 0.00 0.00 59 1015.2
20260902035549 31 204 0.0 0.0 0.00 0.00 0.00 58 1015.1
20260902035045 31 114 0.0 0.0 0.00 0.00 0.00 58 1015.0
20260902034544 31 193 0.0 0.0 0.00 0.00 0.00 57 1015.1
20260902034043 30 182 0.0 0.0 0.00 0.00 0.00 58 1015.2
20260902033543 30 206 0.0 0.0 0.00 0.00 0.00 61 1014.9
20260902033038 30 200 0.0 0.0 0.00 0.00 0.00 60 1014.8
20260902032536 31 202 0.0 0.0 0.00 0.00 0.00 59 1014.6
20260902032031 31 202 0.0 0.0 0.00 0.00 0.00 58 1014.4
20260902031526 31 202 0.0 0.0 0.00 0.00 0.00 58 1014.5
20260902031022 31 202 0.0 0.0 0.00 0.00 0.00 57 1014.4
20260902030517 31 202 0.0 0.0 0.00 0.00 0.00 57 1014.4
20260902030016 31 202 0.0 0.0 0.00 0.00 0.00 56 1014.2
20260902025511 31 202 0.0 0.0 0.00 0.00 0.00 56 1014.1
20260902025006 32 204 0.0 0.0 0.00 0.00 0.00 55 1014.1
20260902024501 32 198 0.0 0.0 0.00 0.00 0.00 55 1014.2
20260902023955 32 198 0.0 0.0 0.00 0.00 0.00 54 1014.2
20260902023452 32 198 0.0 0.0 0.00 0.00 0.00 53 1014.0
20260902022951 32 202 0.0 0.0 0.00 0.00 0.00 53 1014.0
20260902022446 32 202 0.0 0.0 0.00 0.00 0.00 53 1013.8
20260902021942 32 189 0.0 0.0 0.00 0.00 0.00 52 1013.8
20260902021437 32 200 0.0 0.0 0.00 0.00 0.00 52 1013.8
20260902020932 32 196 0.0 0.0 0.00 0.00 0.00 52 1013.5
20260902020428 32 197 0.0 0.0 0.00 0.00 0.00 52 1013.7
20260902015923 32 197 0.0 0.0 0.00 0.00 0.00 53 1013.6
20260902015420 32 199 0.0 0.0 0.00 0.00 0.00 52 1013.4
20260902014915 32 197 0.0 0.0 0.00 0.00 0.00 52 1013.4
20260902014411 32 197 0.0 0.0 0.00 0.00 0.00 52 1013.5
20260902013910 32 195 0.0 0.0 0.00 0.00 0.00 51 1013.2
20260902013406 32 189 0.0 0.0 0.00 0.00 0.00 52 1013.2
20260902012901 32 204 0.0 0.0 0.00 0.00 0.00 53 1013.3
20260902012357 32 191 0.0 0.0 0.00 0.00 0.00 55 1013.3
20260902011852 32 203 0.0 0.0 0.00 0.00 0.00 54 1013.1
20260902011346 32 203 0.0 0.0 0.00 0.00 0.00 53 1013.1
20260902010840 32 203 0.0 0.0 0.00 0.00 0.00 53 1013.0
20260902010335 33 203 0.0 0.0 0.00 0.00 0.00 52 1012.8
20260902005834 33 202 0.0 0.0 0.00 0.00 0.00 51 1012.9
20260902005328 33 202 0.0 0.0 0.00 0.00 0.00 50 1013.1
20260902004824 33 202 0.0 0.0 0.00 0.00 0.00 50 1013.0
20260902004319 33 197 0.0 0.0 0.00 0.00 0.00 49 1013.0
20260902003814 34 187 0.0 0.0 0.00 0.00 0.00 49 1013.0
20260902003309 34 202 0.0 0.0 0.00 0.00 0.00 49 1012.9
20260902002805 34 202 0.0 0.0 0.00 0.00 0.00 48 1012.9
20260902002306 35 200 0.0 0.0 0.00 0.00 0.00 47 1013.0
20260902001800 35 195 0.0 0.0 0.00 0.00 0.00 47 1013.0
20260902001255 35 196 0.0 0.0 0.00 0.00 0.00 47 1013.1
20260902000755 35 193 0.0 0.0 0.00 0.00 0.00 46 1013.0
20260902000250 35 192 0.0 0.0 0.00 0.00 0.00 47 1013.1
20260901235750 35 190 0.0 0.0 0.00 0.00 0.00 47 1013.2
20260901235245 35 193 0.0 0.0 0.00 0.00 0.00 46 1013.2
20260901234744 35 178 0.0 0.0 0.00 0.00 0.00 46 1013.1
20260901234239 35 190 0.0 0.0 0.00 0.00 0.00 46 1013.2
20260901233733 35 187 0.0 0.0 0.00 0.00 0.00 45 1013.3
20260901233230 35 198 0.0 0.0 0.00 0.00 0.00 46 1013.3
20260901232724 35 190 0.0 0.0 0.00 0.00 0.00 45 1013.5
20260901232219 35 80 0.0 0.0 0.00 0.00 0.00 45 1013.5
20260901231716 35 200 0.0 0.0 0.00 0.00 0.00 45 1013.4
20260901231212 35 194 0.0 0.0 0.00 0.00 0.00 45 1013.4
20260901230707 35 191 0.0 0.0 0.00 0.00 0.00 45 1013.4
20260901230207 36 195 0.0 0.0 0.00 0.00 0.00 44 1013.2
20260901225702 36 193 0.0 0.0 0.00 0.00 0.00 44 1013.4
20260901225157 36 189 0.0 0.0 0.00 0.00 0.00 45 1013.5
20260901224653 36 184 0.0 0.0 0.00 0.00 0.00 44 1013.3
20260901224149 36 191 0.0 0.0 0.00 0.00 0.00 44 1013.4
20260901223644 36 189 0.0 0.0 0.00 0.00 0.00 43 1013.5
20260901223139 36 195 0.0 0.0 0.00 0.00 0.00 44 1013.5
20260901222635 36 199 0.0 0.0 0.00 0.00 0.00 44 1013.6
20260901222131 35 190 0.0 0.0 0.00 0.00 0.00 45 1013.5
20260901221627 36 88 0.0 0.0 0.00 0.00 0.00 45 1013.6
20260901221123 36 192 0.0 0.0 0.00 0.00 0.00 45 1013.7
20260901220621 36 192 0.0 0.0 0.00 0.00 0.00 43 1013.8
20260901220122 36 201 0.0 0.0 0.00 0.00 0.00 43 1013.5
20260901215620 36 191 0.0 0.0 0.00 0.00 0.00 44 1013.5
20260901215120 35 188 0.0 0.0 0.00 0.00 0.00 46 1013.7
20260901214618 35 190 0.0 0.0 0.00 0.00 0.00 45 1013.8
20260901214113 36 201 0.0 0.0 0.00 0.00 0.00 45 1013.6
20260901213612 36 195 0.0 0.0 0.00 0.00 0.00 45 1013.7
20260901213107 36 193 0.0 0.0 0.00 0.00 0.00 44 1014.0
20260901212607 36 184 0.0 0.0 0.00 0.00 0.00 44 1013.9
20260901212103 36 190 0.0 0.0 0.00 0.00 0.00 44 1014.0
20260901211558 36 182 0.0 0.0 0.00 0.00 0.00 44 1014.0
20260901211055 36 258 0.0 0.0 0.00 0.00 0.00 44 1013.9
20260901210549 36 178 0.0 0.0 0.00 0.00 0.00 44 1014.2
20260901210046 36 193 0.0 0.0 0.00 0.00 0.00 43 1014.1
20260901205542 36 198 0.0 0.0 0.00 0.00 0.00 42 1014.1
20260901205041 36 220 0.0 0.0 0.00 0.00 0.00 43 1014.0
20260901204538 36 183 0.0 0.0 0.00 0.00 0.00 43 1014.2
20260901204032 36 180 0.0 0.0 0.00 0.00 0.00 43 1014.1
20260901203526 36 208 0.0 0.0 0.00 0.00 0.00 42 1014.2
20260901203022 36 205 0.0 0.0 0.00 0.00 0.00 43 1014.2
20260901202516 37 337 0.0 0.0 0.00 0.00 0.00 43 1014.3
20260901202012 36 200 0.0 0.0 0.00 0.00 0.00 43 1014.3
20260901201508 36 242 0.0 0.0 0.00 0.00 0.00 45 1014.4
20260901201002 36 195 0.0 0.0 0.00 0.00 0.00 44 1014.4
20260901200456 36 183 0.0 0.0 0.00 0.00 0.00 43 1014.6
20260901195955 36 190 0.0 0.0 0.00 0.00 0.00 44 1014.6
20260901195454 37 275 0.0 1.6 0.00 0.00 0.00 44 1014.6
20260901194949 37 187 0.0 0.0 0.00 0.00 0.00 42 1014.7
20260901194444 37 193 0.0 0.0 0.00 0.00 0.00 43 1014.7
20260901193940 37 194 0.0 0.0 0.00 0.00 0.00 42 1014.7
20260901193439 37 222 0.0 1.6 0.00 0.00 0.00 41 1014.8
20260901192938 37 176 0.0 0.0 0.00 0.00 0.00 43 1014.9
20260901192435 37 282 0.0 0.0 0.00 0.00 0.00 42 1015.1
20260901191926 37 357 0.0 0.0 0.00 0.00 0.00 42 1015.0
20260901191421 37 194 0.0 0.0 0.00 0.00 0.00 42 1015.1
20260901190917 37 196 0.0 0.0 0.00 0.00 0.00 43 1015.2
20260901190417 37 222 0.0 0.0 0.00 0.00 0.00 42 1015.3
20260901185915 37 179 0.0 1.6 0.00 0.00 0.00 43 1015.3
20260901185414 37 191 0.0 0.0 0.00 0.00 0.00 42 1015.3
20260901184909 37 178 0.0 0.0 0.00 0.00 0.00 41 1015.5
20260901184404 36 179 0.0 0.0 0.00 0.00 0.00 42 1015.6
20260901183904 37 10 1.6 1.6 0.00 0.00 0.00 40 1015.6
20260901183404 37 198 0.0 0.0 0.00 0.00 0.00 42 1016.0
20260901182900 36 199 0.0 0.0 0.00 0.00 0.00 45 1016.1
20260901182355 36 177 0.0 0.0 0.00 0.00 0.00 44 1016.0
20260901181850 36 206 0.0 0.0 0.00 0.00 0.00 44 1016.3
20260901181345 36 201 0.0 0.0 0.00 0.00 0.00 45 1016.3
20260901180844 36 54 0.0 0.0 0.00 0.00 0.00 44 1016.4
20260901180343 36 188 0.0 0.0 0.00 0.00 0.00 46 1016.6
20260901175842 35 202 0.0 0.0 0.00 0.00 0.00 47 1016.7
20260901175337 35 207 0.0 0.0 0.00 0.00 0.00 47 1016.6
20260901174832 35 230 0.0 0.0 0.00 0.00 0.00 47 1016.8
20260901174328 36 219 0.0 0.0 0.00 0.00 0.00 46 1017.1
20260901173823 36 199 0.0 0.0 0.00 0.00 0.00 46 1016.9
20260901173318 36 212 0.0 0.0 0.00 0.00 0.00 46 1017.0
20260901172815 36 196 0.0 0.0 0.00 0.00 0.00 47 1017.2
20260901172314 36 198 0.0 0.0 0.00 0.00 0.00 47 1017.2
20260901171811 35 58 1.6 1.6 0.00 0.00 0.00 48 1017.1
20260901171310 36 214 0.0 0.0 0.00 0.00 0.00 47 1017.2
20260901170804 35 175 0.0 1.6 0.00 0.00 0.00 47 1017.0
20260901170259 35 72 0.0 0.0 0.00 0.00 0.00 50 1017.3
20260901165758 35 192 0.0 0.0 0.00 0.00 0.00 51 1017.3
20260901165253 34 229 0.0 0.0 0.00 0.00 0.00 50 1017.3
20260901164749 35 197 0.0 0.0 0.00 0.00 0.00 49 1017.5
20260901164245 36 207 0.0 0.0 0.00 0.00 0.00 47 1017.6
20260901163739 36 189 0.0 0.0 0.00 0.00 0.00 48 1017.6
20260901163239 36 204 0.0 0.0 0.00 0.00 0.00 47 1017.7
20260901162734 35 191 0.0 0.0 0.00 0.00 0.00 49 1017.6
20260901162233 35 200 0.0 0.0 0.00 0.00 0.00 50 1017.5
20260901161732 35 198 0.0 1.6 0.00 0.00 0.00 50 1017.8
20260901161227 35 204 0.0 0.0 0.00 0.00 0.00 50 1017.8
20260901160723 35 210 0.0 0.0 0.00 0.00 0.00 52 1017.6